This is the latest recevied weather packets stored in our database for station/object KD9CCP. If no packets are shown the sender has not sent any weather packets the latest 10 day(s).
| Time | Temp. | Humidity | Pressure | Rain* | Wind** | Luminosity | Snow |
|---|---|---|---|---|---|---|---|
| 1777592801 | 2.22° C | 78% | 1017.7 hPa | 0 mm | - | 13 W/m² | - |
| 1777592498 | 2.22° C | 76% | 1017.7 hPa | 0 mm | - | 14 W/m² | - |
| 1777592193 | 2.22° C | 73% | 1017.6 hPa | 0 mm | - | 10 W/m² | - |
| 1777591890 | 2.22° C | 74% | 1017.8 hPa | 0 mm | - | 9 W/m² | - |
| 1777591586 | 2.78° C | 75% | 1017.7 hPa | 0 mm | - | 7 W/m² | - |
| 1777591282 | 2.78° C | 74% | 1017.7 hPa | 0 mm | - | 9 W/m² | - |
| 1777590978 | 2.78° C | 75% | 1017.6 hPa | 0 mm | - | 7 W/m² | - |
| 1777590674 | 2.78° C | 75% | 1017.7 hPa | 0 mm | - | 6 W/m² | - |
| 1777590370 | 2.78° C | 74% | 1017.8 hPa | 0 mm | - | 5 W/m² | - |
| 1777590068 | 2.78° C | 73% | 1017.6 hPa | 0 mm | - | 7 W/m² | - |
| 1777589764 | 3.33° C | 75% | 1017.5 hPa | 0 mm | - | 15 W/m² | - |
| 1777589462 | 3.33° C | 78% | 1017.7 hPa | 0 mm | - | 26 W/m² | - |
| 1777589158 | 3.33° C | 77% | 1017.5 hPa | 0 mm | - | 28 W/m² | - |
| 1777588854 | 3.33° C | 79% | 1017.7 hPa | 0 mm | - | 27 W/m² | - |
| 1777588550 | 3.33° C | 79% | 1017.6 hPa | 0 mm | - | 24 W/m² | - |
| 1777588246 | 3.33° C | 78% | 1017.6 hPa | 0 mm | - | 20 W/m² | - |
| 1777587941 | 3.33° C | 76% | 1017.4 hPa | 0 mm | - | 23 W/m² | - |
| 1777587638 | 3.33° C | 76% | 1017.5 hPa | 0 mm | - | 35 W/m² | - |
| 1777587338 | 3.33° C | 76% | 1017.5 hPa | 0 mm | - | 42 W/m² | - |
| 1777587033 | 3.33° C | 75% | 1017.6 hPa | 0 mm | - | 39 W/m² | - |
| 1777586729 | 2.78° C | 76% | 1017.5 hPa | 0 mm | - | 29 W/m² | - |
| 1777586426 | 3.33° C | 76% | 1017.5 hPa | 0 mm | - | 26 W/m² | - |
| 1777586125 | 3.33° C | 77% | 1017.8 hPa | 0 mm | - | 27 W/m² | - |
| 1777585824 | 3.33° C | 79% | 1017.7 hPa | 0 mm | - | 31 W/m² | - |
| 1777585523 | 3.33° C | 79% | 1017.5 hPa | 0 mm | - | 35 W/m² | - |
* Rain latest hour (hover to see other rain measurements)
** Current wind speed in m/s (hover to see current wind gust speed)